SCP
0 -0 0 0 -0 -0 0 0 0 0 0 -0 -0 0 0 0 0 0 0 0 0 -0 -0 -0 0 0 0 0 0 0 0 0 0 0 0 0 0 0 0 0 0 0 0
0 -0 0 0 -0 0 0 0 0 -0 -0 -0 0 0 0 0 0 0 0 -0 0 -0 -0 -0 0 0 0 0 0 0 0 0 0 0 0 0 0 0 0 0 0 0 0
0 -0 -0 0 -0 0 0 -0 -0 0 -0 0 -0 -0 -0 -0 -0 -0 -0 -0 -0 -0 -0 -0 -0 0 0 0 0 0 0 0 -0 -0 0 0 0 0 0 0 0 0 0
0 0 -0 -0 -0 0 -0 -0 -0 -0 -0 -0 -0 -0 -0 -0 -0 -0 -0 -0 -0 -0 -0 -0 -0 -0 0 0 0 0 0 0 0 0 0 0 0 0 0 0 0 0 0
0 -0 -0 -0 -0 -0 -0 -0 -0 -0 -0 -0 -0 -0 -0 -0 -0 -0 -0 -0 -0 -0 -0 -0 -0 -0 0 0 0 0 0 0 0 0 0 0 0 0 0 0 0 0 0
-0 -0 -0 0 -0 -0 -0 -0 -0 -0 -0 -0 -0 -0 -0 -0 -0 -0 -0 -0 -0 -0 -0 -0 -0 -0 0 0 0 0 0 -0 0 0 0 0 0 0 0 0 0 0 0
-0 -0 -0 0 -0 -0 -0 -0 -0 -0 -0 -0 -0 -0 -0 -0 -0 -0 -0 -0 -0 -0 -0 -0 -0 -0 -0 0 0 0 0 0 0 0 0 0 0 0 0 0 0 0 0
-0 -0 -0 -0 -0 -0 -0 -0 -0 -0 -0 -0 -0 -0 -0 -0 -0 0 -0 -0 -0 -0 -0 -0 -0 -0 0 0 0 0 -0 -0 0 0 0 0 0 0 0 0 0 0 0
-0 -0 -0 -0 -0 -0 -0 -0 -0 -0 -0 -0 -0 -0 -0 -0 -0 0 0 0 -0 0 -0 -0 -0 0 0 0 0 0 -0 0 0 0 0 0 0 0 0 0 0 0 0
0 0 0 0 -0 -0 -0 -0 0 0 0 -0 -0 -0 0 0 -0 0 0 0 0 0 0 0 0 0 0 0 0 0 0 0 0 0 0 0 0 0 0 0 0 0 0
0 0 0 0 0 0 0 0 0 0 0 0 0 -0 0 0 0 -0 0 0 0 0 0 0 0 0 0 0 0 0 0 0 0 0 0 0 0 0 0 0 0 0 0
0 0 0 0 0 0 0 0 0 0 0 0 0 0 0 0 0 0 0 0 0 0 0 0 0 0 0 0 0 0 0 0 0 0 0 0 0 0 0 0 0 0 0
0 0 0 0 0 0 0 0 0 0 0 0 0 0 0 0 0 0 0 0 0 0 0 0 0 0 0 0 0 0 0 0 0 0 0 0 0 0 0 0 0 0 0
0 0 0 0 0 0 0 0 0 0 0 0 0 0 0 0 0 0 0 0 0 0 0 0 0 0 0 0 0 0 0 0 0 0 0 0 0 0 0 0 0 0 0
0 0 0 0 0 0 0 0 0 0 0 0 0 0 0 0 0 0 0 0 0 0 0 0 0 0 0 0 0 0 0 0 0 0 0 0 0 0 0 0 0 0 0
0 0 0 0 0 0 0 0 0 0 0 0 0 0 0 0 0 0 0 0 0 0 0 0 0 0 0 0 0 0 0 0 0 0 0 0 0 0 0 0 0 0 0
0 0 0 0 0 0 0 0 0 0 0 0 0 0 0 0 0 0 0 0 0 0 0 0 0 0 0 0 0 0 0 0 0 0 0 0 0 0 0 0 0 0 0
0 0 0 0 0 0 0 0 0 0 0 0 0 0 0 0 0 0 0 0 0 0 0 0 0 0 0 0 0 0 0 0 0 0 0 0 0 0 0 0 0 0 0
0 0 0 0 0 0 0 0 0 0 0 0 0 0 0 0 0 0 0 0 0 0 0 0 0 0 0 0 0 0 0 0 0 0 0 0 0 0 0 0 0 0 0
0 0 0 0 0 0 0 0 0 0 0 0 0 0 0 0 0 0 0 0 0 0 0 0 0 0 0 0 0 0 0 0 0 0 0 0 0 0 0 0 0 0 0
0 0 0 0 0 0 0 0 0 0 0 0 0 0 0 0 0 0 0 0 0 0 0 0 0 0 0 0 0 0 0 0 0 0 0 0 0 0 0 0 0 0 0
0 0 0 0 0 0 0 0 0 0 0 0 0 0 0 0 0 0 0 0 0 0 0 0 0 0 0 0 0 0 0 0 0 0 0 0 0 0 0 0 0 0 0
0 0 0 0 0 0 0 0 0 0 0 0 0 0 0 0 0 0 0 0 0 0 0 0 0 0 0 0 0 0 0 0 0 0 0 0 0 0 0 0 0 0 0
0 0 0 0 0 0 0 0 0 0 0 0 0 0 0 0 0 0 0 0 0 0 0 0 0 0 0 0 0 0 0 0 0 0 0 0 0 0 0 0 0 0 0
0 0 0 0 0 0 0 0 0 0 0 0 0 0 0 0 0 0 0 0 0 0 0 0 0 0 0 0 0 0 0 0 0 0 0 0 0 0 0 0 0 0 0
0 0 0 0 0 0 0 0 0 0 0 0 0 0 0 0 0 0 0 0 0 0 0 0 0 0 0 0 0 0 0 0 0 0 0 0 0 0 0 0 0 0 0
Wind_Speed_500mb
19 19 23 25 26 26 25 22 18 16 14 16 17 21 23 28 32 32 30 28 40 30 29 30 32 33 35 34 35 39 43 45 38 42 43 46 50 43 42 40 45 44 43
27 21 26 27 25 22 21 19 14 10 10 13 14 18 22 29 32 33 29 24 34 33 32 33 34 34 34 32 33 36 39 41 40 39 39 42 45 40 42 40 47 48 48
28 24 29 27 26 19 17 15 13 10 8 11 12 18 22 29 27 32 29 23 36 26 25 32 32 32 32 31 32 33 35 34 45 43 36 37 43 42 42 42 42 41 40
29 26 27 29 23 19 18 15 11 10 8 10 14 19 23 27 24 32 27 20 33 27 24 29 31 32 32 32 33 33 34 32 44 33 31 34 34 35 32 32 33 35 36
30 26 28 28 22 19 16 11 10 9 7 8 13 19 20 24 24 30 23 18 25 25 23 25 29 30 31 32 33 34 34 35 42 32 31 31 28 31 29 31 31 32 33
29 26 29 27 23 20 16 12 8 6 6 9 11 15 18 22 24 28 23 16 17 22 23 24 26 28 29 31 33 32 31 42 30 27 32 26 31 30 30 30 29 31 31
29 28 31 28 23 21 19 14 9 6 6 9 10 13 14 17 24 22 23 18 15 18 21 23 24 25 27 28 29 29 29 35 24 28 27 30 28 29 28 29 30 30 28
30 28 33 30 27 24 22 16 10 7 5 10 9 9 10 13 17 25 21 23 13 20 19 21 22 23 24 25 25 25 23 34 24 23 26 26 24 25 24 26 25 24 24
27 27 26 33 31 28 24 18 14 11 14 11 12 12 11 11 14 18 21 20 19 19 20 19 19 19 19 20 20 20 21 28 18 24 18 20 18 18 19 22 20 21 21
28 28 28 30 32 31 30 25 19 17 24 19 15 16 13 13 13 16 17 18 18 20 18 16 15 15 16 15 15 16 18 21 17 17 14 17 16 18 16 15 16 19 20
33 33 31 31 32 32 27 30 25 23 26 24 23 20 16 15 16 18 19 18 18 18 16 15 14 12 12 11 11 11 10 11 13 11 3 12 16 10 7 11 12 14 16
42 39 37 37 37 37 31 30 31 30 29 30 27 24 20 20 18 20 20 20 18 19 18 16 15 12 9 7 7 7 6 8 9 9 0 4 7 4 6 8 10 11 13
39 41 41 40 38 37 35 33 29 29 30 29 30 29 27 26 26 25 24 23 24 23 21 19 16 15 11 11 9 6 10 6 4 3 2 1 1 3 5 8 10 9 11
41 44 45 43 43 42 37 37 33 35 34 37 34 35 35 33 31 30 27 27 27 28 25 24 21 19 17 16 14 13 12 9 7 8 8 7 6 5 7 8 10 7 7
42 44 49 50 49 47 46 42 42 40 40 38 38 40 41 38 36 37 34 31 29 30 29 26 24 22 21 19 18 17 16 15 14 13 15 11 11 10 11 11 10 8 7
41 44 46 52 54 53 52 51 48 46 43 43 42 44 43 42 41 41 40 37 35 33 31 28 26 24 23 22 21 20 19 18 17 17 16 18 16 15 15 15 12 12 10
43 43 48 50 56 58 58 56 53 51 49 48 48 47 47 49 47 45 45 42 40 38 36 33 30 27 25 25 23 23 23 23 21 21 22 21 21 19 19 19 16 14 12
43 48 48 55 56 60 63 61 60 58 56 56 55 54 53 54 52 50 50 47 44 44 43 39 35 33 30 25 23 24 26 26 25 24 25 24 25 23 22 21 19 16 13
45 47 49 54 58 60 65 66 66 65 65 63 63 61 60 58 58 57 56 52 51 50 47 44 40 37 33 30 28 26 26 25 28 28 28 28 27 26 26 24 22 18 18
48 50 52 57 61 62 65 71 72 72 74 70 71 70 67 65 64 63 60 59 57 55 53 51 47 42 38 31 27 29 29 30 31 31 32 31 30 30 27 31 25 25 25
49 53 59 64 67 66 72 78 83 89 84 81 81 79 76 74 71 70 69 66 65 63 59 55 53 48 46 40 31 28 28 30 34 37 40 38 36 33 30 30 32 28 27
51 54 59 62 61 69 75 82 84 88 90 87 88 87 85 82 80 80 78 76 73 69 66 63 61 56 53 47 45 28 25 29 38 38 41 42 42 37 33 29 22 31 32
54 59 59 60 65 68 77 75 79 81 85 90 94 94 96 94 91 90 86 84 82 79 76 72 70 67 62 56 54 31 22 25 13 25 31 39 40 41 34 31 32 34 32
46 52 60 60 64 68 73 77 82 92 94 101 103 103 101 99 101 99 95 93 92 89 84 81 77 75 68 67 58 61 52 33 23 15 23 28 37 39 38 36 41 39 40
36 40 50 49 56 68 77 85 87 89 93 95 88 100 102 105 106 108 105 102 100 98 94 89 87 84 78 76 77 64 63 65 57 48 32 27 38 41 42 40 42 43 43
32 35 40 43 46 53 68 80 88 95 94 100 92 91 100 108 110 110 112 114 108 106 104 100 95 90 86 82 81 76 72 68 71 67 60 52 47 47 44 49 50 49 52
Wind_Direction_500mb
142 152 143 138 134 132 132 133 124 120 113 104 90 94 107 103 103 98 98 91 104 109 105 101 102 102 100 95 88 84 91 95 86 78 81 82 82 79 74 82 75 73 76
149 151 142 144 138 136 139 136 125 109 106 93 90 105 115 109 106 104 100 95 106 101 99 105 102 102 103 99 93 90 97 95 87 72 71 84 85 79 74 68 72 68 68
142 160 149 147 144 144 146 141 123 103 94 93 102 118 114 112 113 108 107 99 102 91 100 104 101 100 103 99 96 97 104 94 85 72 67 75 83 79 78 75 71 74 74
146 153 159 152 150 149 154 150 130 113 95 107 122 117 118 118 116 111 110 109 113 114 106 104 103 101 100 100 98 98 100 100 89 85 79 80 83 83 86 81 82 78 76
148 164 170 159 156 158 153 148 129 107 96 123 136 126 122 124 119 113 117 117 109 118 113 112 105 105 104 102 99 99 100 92 87 85 81 81 81 79 82 78 79 73 71
153 167 172 165 161 162 160 166 145 128 116 126 142 132 131 130 127 123 126 131 123 123 115 116 112 113 108 104 102 101 98 88 81 83 85 89 84 79 76 79 72 65 60
160 173 172 171 171 172 169 182 172 164 143 134 129 132 131 133 139 133 138 126 129 126 119 123 120 116 112 108 103 98 92 96 91 85 82 86 82 80 74 65 59 52 57
167 175 179 178 180 182 180 183 185 179 152 155 149 149 138 143 149 145 143 143 141 135 125 129 124 119 118 112 106 100 94 90 83 84 87 79 71 74 68 61 54 51 52
174 170 187 185 185 187 195 197 200 192 175 189 180 171 171 165 162 165 159 155 157 137 135 132 128 127 122 115 108 101 92 103 97 91 98 89 77 66 63 57 54 50 37
179 180 182 186 193 196 202 206 208 205 203 199 201 186 188 185 177 173 173 165 157 150 149 146 137 140 133 125 116 108 102 90 88 65 95 103 82 64 53 53 39 41 37
188 188 184 195 197 197 210 214 216 212 209 205 205 196 192 201 189 180 184 181 173 162 163 161 155 145 140 140 132 124 111 109 101 99 63 88 84 73 53 27 36 33 29
198 196 196 194 197 202 200 222 215 217 213 217 209 204 193 204 200 196 197 191 181 180 180 177 170 164 161 159 166 154 110 141 122 126 31 80 109 87 11 5 10 10 20
213 203 204 203 204 205 205 211 204 217 208 222 219 211 198 204 208 211 205 197 191 191 196 194 188 187 183 193 217 200 209 165 182 192 273 308 39 9 349 345 351 7 17
211 219 216 213 212 213 211 213 210 211 209 211 225 212 212 209 210 211 213 206 200 197 203 205 202 209 215 215 220 222 222 207 207 228 265 263 275 293 312 320 323 337 0
217 221 220 221 222 221 221 221 217 218 221 220 217 217 217 214 216 214 213 210 210 206 209 210 212 219 226 228 230 233 236 233 234 241 255 263 267 277 291 295 300 301 330
221 220 225 223 223 224 225 224 224 226 226 224 224 225 220 219 220 218 218 212 212 213 216 214 220 224 230 233 238 240 241 245 247 250 254 268 265 268 276 281 284 286 299
230 224 225 226 226 225 227 226 226 227 226 229 230 229 226 223 223 222 222 218 216 217 219 219 223 225 228 237 239 246 248 250 253 253 254 258 267 262 266 272 270 272 279
232 232 227 232 233 230 230 230 230 230 230 232 232 231 228 226 226 225 226 223 221 222 222 223 226 230 230 234 238 247 252 254 256 256 257 259 261 265 265 265 260 259 256
237 236 232 230 236 236 234 233 233 235 234 233 233 233 232 229 229 229 228 226 224 225 226 226 226 229 230 225 232 233 243 248 259 257 258 260 258 261 266 266 254 253 245
235 233 237 239 242 237 234 234 236 236 236 234 236 235 235 233 231 230 230 228 227 227 228 228 229 230 227 229 228 234 241 250 250 253 254 265 259 259 258 263 255 252 246
237 234 236 237 242 236 235 235 234 239 239 236 236 237 236 235 233 233 231 230 228 228 230 232 232 229 232 224 217 241 244 243 242 251 250 258 258 253 255 260 257 249 245
244 240 239 238 236 239 240 242 242 243 245 245 242 240 239 237 236 234 232 232 232 231 230 230 231 230 232 232 226 221 241 257 251 260 250 247 248 252 247 252 258 239 250
251 250 247 245 242 237 247 240 243 240 242 243 243 243 242 240 238 237 236 234 234 234 233 232 232 230 231 229 232 207 206 224 240 246 246 242 240 242 243 239 246 250 251
260 254 254 248 248 243 241 240 240 240 236 249 248 248 246 244 241 241 239 237 236 235 234 235 235 235 230 232 233 225 224 214 200 229 250 245 236 235 241 245 249 258 261
272 262 261 265 250 250 248 242 244 243 245 250 244 250 249 248 245 243 242 239 237 237 238 236 235 234 234 232 237 238 232 235 230 230 234 243 246 239 246 249 256 261 263
291 278 292 287 268 255 252 250 243 245 248 250 242 242 246 250 250 245 244 242 239 239 239 239 238 237 237 236 235 241 242 233 235 230 234 236 244 251 250 251 256 261 267
Wind_Speed_850mb
19 19 23 25 26 26 25 22 18 16 14 16 17 21 23 28 32 32 30 28 40 30 29 30 32 33 35 34 35 39 43 45 38 42 43 46 50 43 42 40 45 44 43
27 21 26 27 25 22 21 19 14 10 10 13 14 18 22 29 32 33 29 24 34 33 32 33 34 34 34 32 33 36 39 41 40 39 39 42 45 40 42 40 47 48 48
28 24 29 27 26 19 17 15 13 10 8 11 12 18 22 29 27 32 29 23 36 26 25 32 32 32 32 31 32 33 35 34 45 43 36 37 43 42 42 42 42 41 40
29 26 27 29 23 19 18 15 11 10 8 10 14 19 23 27 24 32 27 20 33 27 24 29 31 32 32 32 33 33 34 32 44 33 31 34 34 35 32 32 33 35 36
30 26 28 28 22 19 16 11 10 9 7 8 13 19 20 24 24 30 23 18 25 25 23 25 29 30 31 32 33 34 34 35 42 32 31 31 28 31 29 31 31 32 33
29 26 29 27 23 20 16 12 8 6 6 9 11 15 18 22 24 28 23 16 17 22 23 24 26 28 29 31 33 32 31 42 30 27 32 26 31 30 30 30 29 31 31
29 28 31 28 23 21 19 14 9 6 6 9 10 13 14 17 24 22 23 18 15 18 21 23 24 25 27 28 29 29 29 35 24 28 27 30 28 29 28 29 30 30 28
30 28 33 30 27 24 22 16 10 7 5 10 9 9 10 13 17 25 21 23 13 20 19 21 22 23 24 25 25 25 23 34 24 23 26 26 24 25 24 26 25 24 24
27 27 26 33 31 28 24 18 14 11 14 11 12 12 11 11 14 18 21 20 19 19 20 19 19 19 19 20 20 20 21 28 18 24 18 20 18 18 19 22 20 21 21
28 28 28 30 32 31 30 25 19 17 24 19 15 16 13 13 13 16 17 18 18 20 18 16 15 15 16 15 15 16 18 21 17 17 14 17 16 18 16 15 16 19 20
33 33 31 31 32 32 27 30 25 23 26 24 23 20 16 15 16 18 19 18 18 18 16 15 14 12 12 11 11 11 10 11 13 11 3 12 16 10 7 11 12 14 16
42 39 37 37 37 37 31 30 31 30 29 30 27 24 20 20 18 20 20 20 18 19 18 16 15 12 9 7 7 7 6 8 9 9 0 4 7 4 6 8 10 11 13
39 41 41 40 38 37 35 33 29 29 30 29 30 29 27 26 26 25 24 23 24 23 21 19 16 15 11 11 9 6 10 6 4 3 2 1 1 3 5 8 10 9 11
41 44 45 43 43 42 37 37 33 35 34 37 34 35 35 33 31 30 27 27 27 28 25 24 21 19 17 16 14 13 12 9 7 8 8 7 6 5 7 8 10 7 7
42 44 49 50 49 47 46 42 42 40 40 38 38 40 41 38 36 37 34 31 29 30 29 26 24 22 21 19 18 17 16 15 14 13 15 11 11 10 11 11 10 8 7
41 44 46 52 54 53 52 51 48 46 43 43 42 44 43 42 41 41 40 37 35 33 31 28 26 24 23 22 21 20 19 18 17 17 16 18 16 15 15 15 12 12 10
43 43 48 50 56 58 58 56 53 51 49 48 48 47 47 49 47 45 45 42 40 38 36 33 30 27 25 25 23 23 23 23 21 21 22 21 21 19 19 19 16 14 12
43 48 48 55 56 60 63 61 60 58 56 56 55 54 53 54 52 50 50 47 44 44 43 39 35 33 30 25 23 24 26 26 25 24 25 24 25 23 22 21 19 16 13
45 47 49 54 58 60 65 66 66 65 65 63 63 61 60 58 58 57 56 52 51 50 47 44 40 37 33 30 28 26 26 25 28 28 28 28 27 26 26 24 22 18 18
48 50 52 57 61 62 65 71 72 72 74 70 71 70 67 65 64 63 60 59 57 55 53 51 47 42 38 31 27 29 29 30 31 31 32 31 30 30 27 31 25 25 25
49 53 59 64 67 66 72 78 83 89 84 81 81 79 76 74 71 70 69 66 65 63 59 55 53 48 46 40 31 28 28 30 34 37 40 38 36 33 30 30 32 28 27
51 54 59 62 61 69 75 82 84 88 90 87 88 87 85 82 80 80 78 76 73 69 66 63 61 56 53 47 45 28 25 29 38 38 41 42 42 37 33 29 22 31 32
54 59 59 60 65 68 77 75 79 81 85 90 94 94 96 94 91 90 86 84 82 79 76 72 70 67 62 56 54 31 22 25 13 25 31 39 40 41 34 31 32 34 32
46 52 60 60 64 68 73 77 82 92 94 101 103 103 101 99 101 99 95 93 92 89 84 81 77 75 68 67 58 61 52 33 23 15 23 28 37 39 38 36 41 39 40
36 40 50 49 56 68 77 85 87 89 93 95 88 100 102 105 106 108 105 102 100 98 94 89 87 84 78 76 77 64 63 65 57 48 32 27 38 41 42 40 42 43 43
32 35 40 43 46 53 68 80 88 95 94 100 92 91 100 108 110 110 112 114 108 106 104 100 95 90 86 82 81 76 72 68 71 67 60 52 47 47 44 49 50 49 52
Wind_Direction_850mb
142 152 143 138 134 132 132 133 124 120 113 104 90 94 107 103 103 98 98 91 104 109 105 101 102 102 100 95 88 84 91 95 86 78 81 82 82 79 74 82 75 73 76
149 151 142 144 138 136 139 136 125 109 106 93 90 105 115 109 106 104 100 95 106 101 99 105 102 102 103 99 93 90 97 95 87 72 71 84 85 79 74 68 72 68 68
142 160 149 147 144 144 146 141 123 103 94 93 102 118 114 112 113 108 107 99 102 91 100 104 101 100 103 99 96 97 104 94 85 72 67 75 83 79 78 75 71 74 74
146 153 159 152 150 149 154 150 130 113 95 107 122 117 118 118 116 111 110 109 113 114 106 104 103 101 100 100 98 98 100 100 89 85 79 80 83 83 86 81 82 78 76
148 164 170 159 156 158 153 148 129 107 96 123 136 126 122 124 119 113 117 117 109 118 113 112 105 105 104 102 99 99 100 92 87 85 81 81 81 79 82 78 79 73 71
153 167 172 165 161 162 160 166 145 128 116 126 142 132 131 130 127 123 126 131 123 123 115 116 112 113 108 104 102 101 98 88 81 83 85 89 84 79 76 79 72 65 60
160 173 172 171 171 172 169 182 172 164 143 134 129 132 131 133 139 133 138 126 129 126 119 123 120 116 112 108 103 98 92 96 91 85 82 86 82 80 74 65 59 52 57
167 175 179 178 180 182 180 183 185 179 152 155 149 149 138 143 149 145 143 143 141 135 125 129 124 119 118 112 106 100 94 90 83 84 87 79 71 74 68 61 54 51 52
174 170 187 185 185 187 195 197 200 192 175 189 180 171 171 165 162 165 159 155 157 137 135 132 128 127 122 115 108 101 92 103 97 91 98 89 77 66 63 57 54 50 37
179 180 182 186 193 196 202 206 208 205 203 199 201 186 188 185 177 173 173 165 157 150 149 146 137 140 133 125 116 108 102 90 88 65 95 103 82 64 53 53 39 41 37
188 188 184 195 197 197 210 214 216 212 209 205 205 196 192 201 189 180 184 181 173 162 163 161 155 145 140 140 132 124 111 109 101 99 63 88 84 73 53 27 36 33 29
198 196 196 194 197 202 200 222 215 217 213 217 209 204 193 204 200 196 197 191 181 180 180 177 170 164 161 159 166 154 110 141 122 126 31 80 109 87 11 5 10 10 20
213 203 204 203 204 205 205 211 204 217 208 222 219 211 198 204 208 211 205 197 191 191 196 194 188 187 183 193 217 200 209 165 182 192 273 308 39 9 349 345 351 7 17
211 219 216 213 212 213 211 213 210 211 209 211 225 212 212 209 210 211 213 206 200 197 203 205 202 209 215 215 220 222 222 207 207 228 265 263 275 293 312 320 323 337 0
217 221 220 221 222 221 221 221 217 218 221 220 217 217 217 214 216 214 213 210 210 206 209 210 212 219 226 228 230 233 236 233 234 241 255 263 267 277 291 295 300 301 330
221 220 225 223 223 224 225 224 224 226 226 224 224 225 220 219 220 218 218 212 212 213 216 214 220 224 230 233 238 240 241 245 247 250 254 268 265 268 276 281 284 286 299
230 224 225 226 226 225 227 226 226 227 226 229 230 229 226 223 223 222 222 218 216 217 219 219 223 225 228 237 239 246 248 250 253 253 254 258 267 262 266 272 270 272 279
232 232 227 232 233 230 230 230 230 230 230 232 232 231 228 226 226 225 226 223 221 222 222 223 226 230 230 234 238 247 252 254 256 256 257 259 261 265 265 265 260 259 256
237 236 232 230 236 236 234 233 233 235 234 233 233 233 232 229 229 229 228 226 224 225 226 226 226 229 230 225 232 233 243 248 259 257 258 260 258 261 266 266 254 253 245
235 233 237 239 242 237 234 234 236 236 236 234 236 235 235 233 231 230 230 228 227 227 228 228 229 230 227 229 228 234 241 250 250 253 254 265 259 259 258 263 255 252 246
237 234 236 237 242 236 235 235 234 239 239 236 236 237 236 235 233 233 231 230 228 228 230 232 232 229 232 224 217 241 244 243 242 251 250 258 258 253 255 260 257 249 245
244 240 239 238 236 239 240 242 242 243 245 245 242 240 239 237 236 234 232 232 232 231 230 230 231 230 232 232 226 221 241 257 251 260 250 247 248 252 247 252 258 239 250
251 250 247 245 242 237 247 240 243 240 242 243 243 243 242 240 238 237 236 234 234 234 233 232 232 230 231 229 232 207 206 224 240 246 246 242 240 242 243 239 246 250 251
260 254 254 248 248 243 241 240 240 240 236 249 248 248 246 244 241 241 239 237 236 235 234 235 235 235 230 232 233 225 224 214 200 229 250 245 236 235 241 245 249 258 261
272 262 261 265 250 250 248 242 244 243 245 250 244 250 249 248 245 243 242 239 237 237 238 236 235 234 234 232 237 238 232 235 230 230 234 243 246 239 246 249 256 261 263
291 278 292 287 268 255 252 250 243 245 248 250 242 242 246 250 250 245 244 242 239 239 239 239 238 237 237 236 235 241 242 233 235 230 234 236 244 251 250 251 256 261 267